Weather History for KGTF - September, 2013

Change the Weather History Date:

Friday, September 27, 2013

  Actual Average Record
Temperature  
Mean Temperature 46 °F 52 °F  
Max Temperature 59 °F 66 °F 91 °F (1963)
Min Temperature 32 °F 38 °F 23 °F (1984)
Degree Days  
Heating Degree Days 19 13  
Month to date heating degree days 131 244  
Since 1 July heating degree days 155 365  
Cooling Degree Days 0 0  
Month to date cooling degree days 80 20  
Year to date cooling degree days 449 296  
Moisture  
Dew Point 31 °F    
Average Humidity 66    
Maximum Humidity 100    
Minimum Humidity 31    
Precipitation  
Precipitation 0.00 in 0.05 in 1.56 in (1982)
Month to date precipitation 0.84 1.30  
Year to date precipitation 9.73 12.63  
Snow  
Snow 0.00 in 0.10 in 1.30 in (1965)
Month to date snowfall T 1.0  
Since 1 July snowfall T 1.3  
Since 1 September snowfall T 1.0  
Snow Depth 0.00 in    
Sea Level Pressure  
Sea Level Pressure 29.95 in    
Wind  
Wind Speed 15 mph (SW)    
Max Wind Speed 26 mph    
Max Gust Speed 36 mph    
Visibility 10 miles    
Events      
T = Trace of Precipitation, MM = Missing Value Source: NWS Daily Summary

Daily Weather History Graph

Daily Weather History Graph

Search for Another Location

Airport or City:

Trip Planner

Search our weather history database for the weather conditions in past years. The results will help you decide how hot, cold, wet, or windy it might be!

Date:

Astronomy

Sep. 27, 2013 Rise Set
Actual Time 7:19 AM MDT 7:12 PM MDT
Civil Twilight 6:48 AM MDT 7:42 PM MDT
Nautical Twilight 6:13 AM MDT 8:18 PM MDT
Astronomical Twilight 5:36 AM MDT 8:55 PM MDT
Moon No Moon Rise 3:15 PM MDT (9/27)
Length of Visible Light 12h 54m
Length of Day
11h 52m
Last Quarter, 44% of the Moon is Illuminated
Sep 27
Last Quarter
Oct 4
New
Oct 11
First Quarter
Oct 18
Full
Oct 26
Last Quarter

Hourly Weather History & Observations

Time (MDT) Temp. Windchill Dew Point Humidity Pressure Visibility Wind Dir Wind Speed Gust Speed Precip Events Conditions
12:53 AM 34.0 °F 28.0 °F 32.0 °F 92% 30.08 in 10.0 mi SSW 6.9 mph - N/A   Clear
1:53 AM 35.1 °F 27.4 °F 32.0 °F 89% 30.06 in - SSW 10.4 mph - N/A   Clear
2:53 AM 34.0 °F 26.6 °F 32.0 °F 92% 30.05 in 10.0 mi SSW 9.2 mph - N/A   Clear
3:53 AM 34.0 °F 27.2 °F 32.0 °F 92% 30.05 in 10.0 mi SSW 8.1 mph - N/A   Clear
4:53 AM 34.0 °F 25.5 °F 30.9 °F 89% 30.03 in 10.0 mi SSW 11.5 mph - N/A   Clear
5:53 AM 34.0 °F 25.0 °F 30.9 °F 89% 30.03 in 10.0 mi SSW 12.7 mph - N/A   Clear
6:53 AM 34.0 °F 26.0 °F 30.0 °F 85% 30.02 in 10.0 mi SSW 10.4 mph - N/A   Clear
7:53 AM 35.1 °F 26.4 °F 30.0 °F 82% 30.03 in 10.0 mi SSW 12.7 mph - N/A   Clear
8:53 AM 39.0 °F 31.0 °F 30.9 °F 73% 30.01 in 10.0 mi SSW 13.8 mph - N/A   Clear
9:53 AM 44.1 °F 36.8 °F 33.1 °F 65% 29.99 in 10.0 mi SSW 16.1 mph - N/A   Clear
10:53 AM 48.9 °F - 32.0 °F 52% 29.96 in 10.0 mi SSW 17.3 mph - N/A   Clear
11:47 AM 48.2 °F - 48.2 °F 100% 29.84 in 1.0 mi NE 11.5 mph - N/A   Overcast
11:53 AM 53.1 °F - 30.9 °F 43% 29.94 in 10.0 mi SW 15.0 mph - N/A   Clear
12:53 PM 54.0 °F - 32.0 °F 43% 29.92 in 10.0 mi SSW 17.3 mph 27.6 mph N/A   Clear
1:53 PM 57.0 °F - 30.9 °F 37% 29.88 in 10.0 mi SSW 21.9 mph 28.8 mph N/A   Partly Cloudy
2:53 PM 59.0 °F - 28.9 °F 32% 29.86 in 10.0 mi WSW 19.6 mph 27.6 mph N/A   Clear
3:53 PM 57.0 °F - 28.0 °F 33% 29.86 in 10.0 mi SW 21.9 mph 33.4 mph N/A   Mostly Cloudy
4:53 PM 54.0 °F - 26.1 °F 34% 29.87 in 10.0 mi WSW 18.4 mph 27.6 mph N/A   Mostly Cloudy
5:53 PM 53.1 °F - 27.0 °F 37% 29.89 in 10.0 mi WSW 19.6 mph 27.6 mph N/A   Scattered Clouds
6:53 PM 50.0 °F - 28.0 °F 43% 29.91 in 10.0 mi WSW 12.7 mph - N/A   Overcast
7:53 PM 46.0 °F 39.9 °F 30.9 °F 56% 29.92 in 10.0 mi SW 13.8 mph - N/A   Partly Cloudy
8:53 PM 46.9 °F - 30.9 °F 54% 29.91 in 10.0 mi SW 16.1 mph - N/A   Clear
9:53 PM 45.0 °F 37.9 °F 33.1 °F 63% 29.90 in 10.0 mi SSW 16.1 mph - N/A   Mostly Cloudy
10:53 PM 46.0 °F 39.0 °F 33.1 °F 61% 29.87 in 10.0 mi SSW 17.3 mph - N/A   Scattered Clouds
11:53 PM 45.0 °F 37.9 °F 33.1 °F 63% 29.86 in 10.0 mi SSW 16.1 mph - N/A   Clear